Location: Newark
(48.4472°N, 1.4892°E)
Time: 14:08:41
(UTC+00:00)

Transit 4A - Pass Details

Date: 25 January 2021
Orbit: 866 x 978 km, 66.8° (Epoch: 01 March)

Event Time Altitude Azimuth Distance (km) Brightness Sun altitude
Rises 19:34:13 0° 228° (SW) 3,667 11.6 -28.4°
Reaches altitude 10° 19:36:49 10° 232° (SW) 2,725 10.9 -28.8°
Maximum altitude 19:43:07 58° 311° (NW) 1,134 8.4 -29.8°
Enters shadow 19:44:59 42° 4° (N) 1,352 8.6 -30.1°
